KQ4NAL Weather Reports


Display with metric or nautical units.
time (UTC)temp
F
wind
direction
speed
MPH
gust
MPH
rain 1hr
in
rain 24hr
in
rain mn
in
humidity
%
barometer
mb
20260508072638 37 358 0.0 0.0 0.00 0.00 0.00 98 1015.6
20260508072136 37 336 0.0 0.0 0.00 0.00 0.00 98 1015.7
20260508071633 38 4 0.0 0.0 0.00 0.00 0.00 98 1015.5
20260508071131 38 358 0.0 0.0 0.00 0.00 0.00 98 1015.6
20260508070629 38 13 0.0 0.0 0.00 0.00 0.00 97 1015.6
20260508070127 38 345 0.0 0.0 0.00 0.00 0.00 97 1015.9
20260508065624 39 353 0.0 1.0 0.00 0.00 0.00 98 1016.1
20260508065122 39 357 0.0 0.0 0.00 0.00 0.00 97 1016.1
20260508064619 38 358 0.0 0.0 0.00 0.00 0.00 98 1016.2
20260508064117 38 357 0.0 0.0 0.00 0.00 0.00 97 1016.2
20260508063614 38 358 0.0 0.0 0.00 0.00 0.00 97 1016.0
20260508063112 38 359 0.0 0.0 0.00 0.00 0.00 97 1016.1
20260508062609 38 358 0.0 0.0 0.00 0.00 0.00 97 1016.1
20260508062106 38 357 0.0 0.0 0.00 0.00 0.00 97 1016.3
20260508061604 38 0 0.0 0.0 0.00 0.00 0.00 97 1016.1
20260508061101 38 1 0.0 0.0 0.00 0.00 0.00 96 1016.4
20260508060557 39 1 0.0 0.0 0.00 0.00 0.00 96 1016.5
20260508060055 39 0 0.0 0.0 0.00 0.00 0.00 97 1016.5
20260508055550 39 359 0.0 0.0 0.00 0.00 0.00 96 1016.5
20260508055047 39 359 0.0 0.0 0.00 0.00 0.00 97 1016.4
20260508054543 40 7 0.0 0.0 0.00 0.00 0.00 97 1016.4
20260508054041 39 357 0.0 0.0 0.00 0.00 0.00 97 1016.4
20260508053537 39 3 0.0 0.0 0.00 0.00 0.00 97 1016.4
20260508053036 39 359 0.0 0.0 0.00 0.00 0.00 96 1016.4
20260508052533 38 0 0.0 0.0 0.00 0.00 0.00 96 1016.4
20260508052030 38 0 0.0 0.0 0.00 0.00 0.00 96 1016.1
20260508051526 39 0 0.0 0.0 0.00 0.00 0.00 96 1016.2
20260508051021 39 0 0.0 0.0 0.00 0.00 0.00 96 1016.2
20260508050518 39 0 0.0 0.0 0.00 0.00 0.00 96 1016.1
20260508050015 39 358 0.0 0.0 0.00 0.00 0.00 96 1016.2
20260508045512 39 358 0.0 0.0 0.00 0.00 0.00 96 1016.3
20260508045009 39 359 0.0 0.0 0.00 0.00 0.00 96 1016.3
20260508044506 39 355 0.0 0.0 0.00 0.00 0.00 96 1016.3
20260508044002 38 0 0.0 0.0 0.00 0.00 0.00 95 1016.5
20260508043459 38 0 0.0 0.0 0.00 0.00 0.00 95 1016.4
20260508042955 39 0 0.0 0.0 0.00 0.00 0.00 95 1016.3
20260508042453 39 0 0.0 0.0 0.00 0.00 0.00 95 1016.2
20260508041950 40 0 0.0 0.0 0.00 0.00 0.00 95 1016.2
20260508041446 39 353 0.0 0.0 0.00 0.00 0.00 95 1016.3
20260508040943 39 0 0.0 0.0 0.00 0.00 0.00 94 1016.2
20260508040440 40 0 0.0 0.0 0.00 0.00 0.00 94 1016.1
20260508035938 40 0 0.0 0.0 0.00 0.00 0.00 94 1016.2
20260508035435 40 3 0.0 0.0 0.00 0.00 0.00 94 1016.2
20260508034931 40 1 0.0 0.0 0.00 0.00 0.00 93 1016.2
20260508034429 40 1 0.0 0.0 0.00 0.00 0.00 93 1016.2
20260508033925 40 1 0.0 0.0 0.00 0.00 0.00 92 1016.3
20260508033424 40 1 0.0 0.0 0.00 0.00 0.00 92 1016.2
20260508032921 40 1 0.0 0.0 0.00 0.00 0.00 92 1016.1
20260508032418 41 2 0.0 0.0 0.00 0.00 0.00 92 1016.1
20260508031915 40 0 0.0 0.0 0.00 0.00 0.00 92 1016.4
20260508031412 40 0 0.0 0.0 0.00 0.00 0.00 91 1016.4
20260508030908 41 0 0.0 0.0 0.00 0.00 0.00 91 1016.4
20260508030405 40 0 0.0 0.0 0.00 0.00 0.00 91 1016.2
20260508025902 40 0 0.0 0.0 0.00 0.00 0.00 90 1016.1
20260508025358 41 0 0.0 0.0 0.00 0.00 0.00 90 1016.1
20260508024855 41 0 0.0 0.0 0.00 0.00 0.00 89 1016.3
20260508024352 41 0 0.0 0.0 0.00 0.00 0.00 89 1016.5
20260508023849 42 0 0.0 0.0 0.00 0.00 0.00 89 1016.1
20260508023346 42 0 0.0 0.0 0.00 0.00 0.00 89 1015.9
20260508022843 42 0 0.0 0.0 0.00 0.00 0.00 88 1016.1
20260508022338 42 0 0.0 0.0 0.00 0.00 0.00 87 1016.1
20260508021836 42 0 0.0 0.0 0.00 0.00 0.00 87 1016.1
20260508021332 41 0 0.0 0.0 0.00 0.00 0.00 86 1016.1
20260508020827 42 0 0.0 0.0 0.00 0.00 0.00 86 1016.1
20260508020325 42 0 0.0 0.0 0.00 0.00 0.00 86 1016.2
20260508015822 43 0 0.0 0.0 0.00 0.00 0.00 85 1016.1
20260508015320 44 0 0.0 0.0 0.00 0.00 0.00 85 1016.0
20260508014816 44 0 0.0 0.0 0.00 0.00 0.00 84 1015.9
20260508014314 44 0 0.0 0.0 0.00 0.00 0.00 83 1015.9
20260508013809 45 0 0.0 0.0 0.00 0.00 0.00 81 1016.0
20260508013306 46 0 0.0 0.0 0.00 0.00 0.00 80 1016.0
20260508012803 46 0 0.0 0.0 0.00 0.00 0.00 79 1015.9
20260508012300 47 358 0.0 0.0 0.00 0.00 0.00 78 1015.9
20260508011758 47 2 0.0 0.0 0.00 0.00 0.00 76 1015.8
20260508011255 48 1 0.0 0.0 0.00 0.00 0.00 72 1015.8
20260508010752 48 359 0.0 0.0 0.00 0.00 0.00 68 1015.7
20260508010250 49 359 0.0 0.0 0.00 0.00 0.00 66 1015.8
20260508005747 50 359 0.0 0.0 0.00 0.00 0.00 65 1015.5
20260508005243 50 359 0.0 0.0 0.00 0.00 0.00 65 1015.8
20260508004739 51 359 0.0 0.0 0.00 0.00 0.00 66 1015.6
20260508004235 51 359 0.0 0.0 0.00 0.00 0.00 65 1015.5
20260508003732 52 358 0.0 0.0 0.00 0.00 0.00 63 1015.5
20260508003230 52 358 0.0 0.0 0.00 0.00 0.00 62 1015.5
20260508002726 53 358 0.0 0.0 0.00 0.00 0.00 61 1015.3
20260508002224 53 354 0.0 0.0 0.00 0.00 0.00 59 1015.4
20260508001719 53 1 0.0 0.0 0.00 0.00 0.00 59 1015.4
20260508001215 54 1 0.0 0.0 0.00 0.00 0.00 60 1015.3
20260508000711 55 348 0.0 0.0 0.00 0.00 0.00 56 1015.3
20260508000209 55 357 0.0 0.0 0.00 0.00 0.00 55 1015.2
20260507235705 57 358 0.0 0.0 0.00 0.00 0.00 50 1015.1
20260507235202 58 356 0.0 0.0 0.00 0.00 0.00 51 1015.0
20260507234659 58 356 0.0 0.0 0.00 0.00 0.00 47 1015.2
20260507234155 59 351 1.0 1.0 0.00 0.00 0.00 41 1015.1
20260507233652 59 349 1.0 1.0 0.00 0.00 0.00 41 1015.0
20260507233151 60 359 1.0 2.0 0.00 0.00 0.00 41 1015.2
20260507232648 61 349 1.0 2.0 0.00 0.00 0.00 41 1015.1
20260507232145 61 338 1.0 1.0 0.00 0.00 0.00 39 1015.0
20260507231641 61 356 0.0 1.0 0.00 0.00 0.00 40 1015.1
20260507231138 61 338 0.0 1.0 0.00 0.00 0.00 38 1015.0
20260507230634 62 340 5.0 6.0 0.00 0.00 0.00 37 1015.0
20260507230132 62 344 0.0 0.0 0.00 0.00 0.00 42 1014.9
20260507225632 60 346 1.0 1.0 0.00 0.00 0.00 41 1015.2
20260507225129 62 330 5.0 7.0 0.00 0.00 0.00 39 1015.2
20260507224624 60 346 1.0 1.0 0.00 0.00 0.00 38 1015.1
20260507224121 61 12 4.0 5.0 0.00 0.00 0.00 37 1015.1
20260507223617 61 12 3.0 5.0 0.00 0.00 0.00 38 1015.1
20260507223114 61 319 3.0 5.0 0.00 0.00 0.00 38 1015.0
20260507222611 61 303 2.0 3.0 0.00 0.00 0.00 40 1015.1
20260507222108 61 346 5.0 6.0 0.00 0.00 0.00 37 1015.0
20260507221603 62 7 2.0 5.0 0.00 0.00 0.00 38 1014.8
20260507221101 61 292 2.0 2.0 0.00 0.00 0.00 39 1015.2
20260507220558 63 326 3.0 3.0 0.00 0.00 0.00 37 1015.3
20260507220055 62 33 2.0 3.0 0.00 0.00 0.00 37 1015.4
20260507215551 63 349 4.0 5.0 0.00 0.00 0.00 35 1015.3
20260507215049 62 350 1.0 1.0 0.00 0.00 0.00 39 1015.2
20260507214546 61 320 2.0 2.0 0.00 0.00 0.00 39 1015.2
20260507214042 62 319 3.0 3.0 0.00 0.00 0.00 38 1015.4
20260507213538 63 323 1.0 2.0 0.00 0.00 0.00 37 1015.2
20260507213036 63 9 4.0 5.0 0.00 0.00 0.00 35 1015.2
20260507212531 63 0 1.0 1.0 0.00 0.00 0.00 39 1015.2
20260507212028 61 352 0.0 1.0 0.00 0.00 0.00 37 1015.0
20260507211525 61 9 3.0 3.0 0.00 0.00 0.00 39 1015.1
20260507211022 62 333 3.0 5.0 0.00 0.00 0.00 39 1015.2
20260507210519 62 335 8.0 11.0 0.00 0.00 0.00 38 1015.2
20260507210015 61 352 1.0 1.0 0.00 0.00 0.00 38 1015.1
20260507205512 62 355 3.0 7.0 0.00 0.00 0.00 42 1015.0
20260507205008 61 7 4.0 6.0 0.00 0.00 0.00 40 1015.1
20260507204505 62 347 3.0 3.0 0.00 0.00 0.00 41 1015.0
20260507204003 63 334 2.0 3.0 0.00 0.00 0.00 39 1015.2
20260507203500 61 272 4.0 5.0 0.00 0.00 0.00 40 1015.1
20260507202956 60 348 5.0 6.0 0.00 0.00 0.00 41 1015.2
20260507202453 61 6 9.0 13.0 0.00 0.00 0.00 41 1014.9
20260507201949 61 345 4.0 5.0 0.00 0.00 0.00 41 1015.2
20260507201444 61 355 7.0 8.0 0.00 0.00 0.00 41 1015.1
20260507200941 60 355 3.0 5.0 0.00 0.00 0.00 40 1015.3
20260507200437 62 338 5.0 7.0 0.00 0.00 0.00 39 1015.2
20260507195933 60 354 1.0 2.0 0.00 0.00 0.00 40 1015.3
20260507195431 60 7 8.0 10.0 0.00 0.00 0.00 40 1015.1
20260507194928 60 273 6.0 10.0 0.00 0.00 0.00 39 1015.3
20260507194425 60 309 4.0 6.0 0.00 0.00 0.00 43 1015.2
20260507193920 61 342 6.0 8.0 0.00 0.00 0.00 44 1015.3
20260507193418 62 13 4.0 6.0 0.00 0.00 0.00 41 1015.3
20260507192914 60 334 5.0 6.0 0.00 0.00 0.00 39 1015.3
20260507192410 60 341 1.0 1.0 0.00 0.00 0.00 41 1015.5
20260507191907 60 10 5.0 8.0 0.00 0.00 0.00 42 1015.4
20260507191403 61 16 3.0 3.0 0.00 0.00 0.00 37 1015.6
20260507190900 61 358 3.0 8.0 0.00 0.00 0.00 42 1015.6
20260507190358 60 335 7.0 9.0 0.00 0.00 0.00 40 1015.6
20260507185857 60 298 8.0 9.0 0.00 0.00 0.00 36 1015.3
20260507185354 61 294 7.0 11.0 0.00 0.00 0.00 37 1015.6
20260507184850 61 341 1.0 1.0 0.00 0.00 0.00 42 1015.5
20260507184348 59 14 4.0 5.0 0.00 0.00 0.00 39 1015.7
20260507183845 61 343 5.0 6.0 0.00 0.00 0.00 40 1015.4
20260507183342 60 17 7.0 10.0 0.00 0.00 0.00 38 1015.6
20260507182840 59 341 1.0 2.0 0.00 0.00 0.00 37 1015.5
20260507182335 61 319 3.0 3.0 0.00 0.00 0.00 40 1015.7
20260507181832 60 304 5.0 6.0 0.00 0.00 0.00 38 1015.6
20260507181327 59 29 8.0 9.0 0.00 0.00 0.00 41 1015.7
20260507180825 59 18 6.0 10.0 0.00 0.00 0.00 44 1015.7
20260507180322 59 316 5.0 8.0 0.00 0.00 0.00 37 1015.9
20260507175817 59 281 9.0 11.0 0.00 0.00 0.00 42 1016.0
20260507175314 58 341 3.0 3.0 0.00 0.00 0.00 44 1016.1
20260507174812 60 13 9.0 10.0 0.00 0.00 0.00 43 1016.3
20260507174309 60 331 6.0 9.0 0.00 0.00 0.00 36 1016.3
20260507173807 60 359 2.0 2.0 0.00 0.00 0.00 41 1016.2
20260507173303 59 352 3.0 5.0 0.00 0.00 0.00 43 1016.2
20260507172800 60 9 1.0 2.0 0.00 0.00 0.00 46 1016.3
20260507172257 60 270 2.0 2.0 0.00 0.00 0.00 39 1016.3
20260507171752 59 1 2.0 2.0 0.00 0.00 0.00 45 1016.4
20260507171249 60 359 1.0 3.0 0.00 0.00 0.00 44 1016.3
20260507170746 59 54 2.0 2.0 0.00 0.00 0.00 42 1016.5
20260507170243 58 337 13.0 16.0 0.00 0.00 0.00 39 1016.7
20260507165738 59 337 4.0 5.0 0.00 0.00 0.00 39 1016.7
20260507165235 59 300 2.0 3.0 0.00 0.00 0.00 43 1016.5
20260507164731 58 14 6.0 8.0 0.00 0.00 0.00 42 1016.6
20260507164228 58 318 3.0 3.0 0.00 0.00 0.00 40 1017.0
20260507163725 58 315 3.0 5.0 0.00 0.00 0.00 38 1016.9
20260507163224 58 347 1.0 2.0 0.00 0.00 0.00 44 1017.0
20260507162719 58 256 3.0 3.0 0.00 0.00 0.00 42 1016.6
20260507162215 58 339 3.0 5.0 0.00 0.00 0.00 40 1016.8
20260507161712 58 36 4.0 6.0 0.00 0.00 0.00 43 1016.9
20260507161209 58 322 5.0 7.0 0.00 0.00 0.00 44 1016.8
20260507160704 57 321 3.0 3.0 0.00 0.00 0.00 41 1017.0
20260507160201 57 318 1.0 2.0 0.00 0.00 0.00 45 1017.0
20260507155657 58 5 3.0 5.0 0.00 0.00 0.00 44 1017.0
20260507155153 57 305 5.0 9.0 0.00 0.00 0.00 44 1017.0
20260507154650 58 321 5.0 7.0 0.00 0.00 0.00 44 1016.7
20260507154148 57 219 4.0 5.0 0.00 0.00 0.00 43 1016.8
20260507153644 57 312 3.0 3.0 0.00 0.00 0.00 44 1016.8
20260507153140 57 2 3.0 3.0 0.00 0.00 0.00 40 1016.7
20260507152637 56 313 2.0 2.0 0.00 0.00 0.00 45 1016.6
20260507152133 57 348 2.0 2.0 0.00 0.00 0.00 43 1016.8
20260507151629 56 341 1.0 2.0 0.00 0.00 0.00 41 1016.7
20260507151126 55 339 6.0 7.0 0.00 0.00 0.00 40 1016.7
20260507150623 55 9 6.0 9.0 0.00 0.00 0.00 44 1016.7
20260507150120 55 341 6.0 7.0 0.00 0.00 0.00 42 1016.5
20260507145615 55 329 5.0 6.0 0.00 0.00 0.00 43 1016.7
20260507145113 54 351 3.0 3.0 0.00 0.00 0.00 44 1016.9
20260507144613 54 9 3.0 5.0 0.00 0.00 0.00 45 1016.7
20260507144112 54 318 5.0 6.0 0.00 0.00 0.00 45 1016.7
20260507143608 54 25 5.0 7.0 0.00 0.00 0.00 47 1016.7
20260507143106 55 14 6.0 9.0 0.00 0.00 0.00 46 1016.9
20260507142601 54 311 2.0 3.0 0.00 0.00 0.00 46 1016.9
20260507142058 53 2 5.0 7.0 0.00 0.00 0.00 45 1016.9
20260507141554 53 358 2.0 3.0 0.00 0.00 0.00 49 1016.9
20260507141051 53 338 6.0 8.0 0.00 0.00 0.00 50 1016.9
20260507140548 53 306 4.0 5.0 0.00 0.00 0.00 47 1016.8
20260507140045 52 327 4.0 5.0 0.00 0.00 0.00 52 1016.9
20260507135542 52 337 7.0 10.0 0.00 0.00 0.00 50 1017.0
20260507135039 52 338 3.0 3.0 0.00 0.00 0.00 50 1017.0
20260507134536 52 335 3.0 5.0 0.00 0.00 0.00 53 1016.6
20260507134031 51 329 3.0 3.0 0.00 0.00 0.00 55 1017.0
20260507133528 52 25 3.0 6.0 0.00 0.00 0.00 61 1016.8
20260507133026 52 334 1.0 1.0 0.00 0.00 0.00 60 1017.2
20260507132522 51 342 2.0 2.0 0.00 0.00 0.00 61 1016.8
20260507132019 51 348 3.0 5.0 0.00 0.00 0.00 61 1017.0
20260507131516 50 348 1.0 2.0 0.00 0.00 0.00 62 1016.9
20260507131013 50 359 4.0 5.0 0.00 0.00 0.00 64 1016.9
20260507130510 50 5 3.0 5.0 0.00 0.00 0.00 65 1016.7
20260507130008 49 348 3.0 5.0 0.00 0.00 0.00 65 1016.9
20260507125506 49 4 1.0 2.0 0.00 0.00 0.00 67 1016.8
20260507125003 48 2 1.0 2.0 0.00 0.00 0.00 70 1017.0
20260507124459 48 7 3.0 5.0 0.00 0.00 0.00 71 1017.1
20260507123957 48 14 3.0 5.0 0.00 0.00 0.00 75 1016.9
20260507123455 47 330 2.0 2.0 0.00 0.00 0.00 79 1017.4
20260507122951 46 312 2.0 3.0 0.00 0.00 0.00 84 1017.1
20260507122447 45 17 1.0 2.0 0.00 0.00 0.00 90 1017.1
20260507121943 45 336 2.0 3.0 0.00 0.00 0.00 94 1017.2
20260507121438 44 355 2.0 2.0 0.00 0.00 0.00 96 1017.2
20260507120935 44 355 5.0 5.0 0.00 0.00 0.00 97 1017.0
20260507120431 43 4 2.0 2.0 0.00 0.00 0.00 98 1017.1
20260507115928 43 0 1.0 2.0 0.00 0.00 0.00 99 1017.1
20260507115424 42 345 1.0 1.0 0.00 0.00 0.00 99 1016.9
20260507114920 42 17 3.0 5.0 0.00 0.00 0.00 99 1017.1
20260507114417 42 7 2.0 2.0 0.00 0.00 0.00 99 1016.9
20260507113914 41 8 0.0 0.0 0.00 0.00 0.00 99 1017.0
20260507113411 41 354 1.0 1.0 0.00 0.00 0.00 99 1017.1
20260507112908 40 357 0.0 1.0 0.00 0.00 0.00 99 1017.3
20260507112406 39 358 0.0 0.0 0.00 0.00 0.00 99 1017.0
20260507111904 39 357 0.0 1.0 0.00 0.00 0.00 99 1016.8
20260507111400 39 356 0.0 0.0 0.00 0.00 0.00 99 1016.8
20260507110856 38 353 0.0 0.0 0.00 0.00 0.00 99 1016.8
20260507110352 38 356 0.0 0.0 0.00 0.00 0.00 99 1016.4
20260507105849 38 356 0.0 0.0 0.00 0.00 0.00 99 1016.6
20260507105346 38 356 0.0 0.0 0.00 0.00 0.00 99 1016.7
20260507104843 38 359 0.0 0.0 0.00 0.00 0.00 99 1016.3
20260507104339 38 0 0.0 0.0 0.00 0.00 0.00 99 1016.3
20260507103835 38 356 0.0 0.0 0.00 0.00 0.00 99 1016.4
20260507103332 38 357 0.0 0.0 0.00 0.00 0.00 99 1016.2
20260507102828 38 359 0.0 0.0 0.00 0.00 0.00 99 1016.4
20260507102325 38 355 0.0 0.0 0.00 0.00 0.00 99 1016.3
20260507101821 38 359 0.0 0.0 0.00 0.00 0.00 99 1016.5
20260507101316 38 357 0.0 0.0 0.00 0.00 0.00 99 1016.5
20260507100813 38 358 0.0 0.0 0.00 0.00 0.00 99 1016.4
20260507100311 38 354 0.0 0.0 0.00 0.00 0.00 99 1016.5
20260507095809 38 359 0.0 0.0 0.00 0.00 0.00 99 1016.4
20260507095306 38 354 0.0 0.0 0.00 0.00 0.00 99 1016.3
20260507094802 38 357 0.0 0.0 0.00 0.00 0.00 99 1016.2
20260507094259 39 353 0.0 0.0 0.00 0.00 0.00 99 1016.5
20260507093756 39 358 0.0 0.0 0.00 0.00 0.00 99 1016.3
20260507093255 39 356 0.0 0.0 0.00 0.00 0.00 99 1016.2
20260507092752 39 354 0.0 0.0 0.00 0.00 0.00 99 1016.0
20260507092248 39 357 0.0 0.0 0.00 0.00 0.00 99 1016.1
20260507091745 38 354 0.0 0.0 0.00 0.00 0.00 99 1016.2
20260507091241 38 351 0.0 0.0 0.00 0.00 0.00 99 1016.1
20260507090736 38 355 0.0 0.0 0.00 0.00 0.00 99 1016.2
20260507090233 39 355 0.0 0.0 0.00 0.00 0.00 99 1016.0
20260507085731 38 359 0.0 0.0 0.00 0.00 0.00 99 1016.3
20260507085227 38 355 0.0 0.0 0.00 0.00 0.00 99 1016.0
20260507084725 38 355 0.0 0.0 0.00 0.00 0.00 99 1015.8
20260507084221 38 355 0.0 0.0 0.00 0.00 0.00 99 1015.8
20260507083719 39 355 0.0 0.0 0.00 0.00 0.00 99 1015.9
20260507083215 38 355 0.0 0.0 0.00 0.00 0.00 99 1015.9
20260507082711 39 355 0.0 0.0 0.00 0.00 0.00 99 1015.8
20260507082207 39 355 0.0 0.0 0.00 0.00 0.00 99 1015.9
20260507081704 39 355 0.0 0.0 0.00 0.00 0.00 99 1015.7
20260507081200 39 355 0.0 0.0 0.00 0.00 0.00 99 1015.9
20260507080657 39 355 0.0 0.0 0.00 0.00 0.00 99 1015.8
20260507080153 37 355 0.0 0.0 0.00 0.00 0.00 99 1015.8
20260507075648 38 355 0.0 0.0 0.00 0.00 0.00 99 1015.7
20260507075145 39 355 0.0 0.0 0.00 0.00 0.00 99 1015.8
20260507074641 39 355 0.0 0.0 0.00 0.00 0.00 99 1015.8
20260507074140 40 355 0.0 0.0 0.00 0.00 0.00 99 1015.7
20260507073636 40 355 0.0 0.0 0.00 0.00 0.00 99 1015.6
20260507073132 39 355 0.0 0.0 0.00 0.00 0.00 99 1015.6